Location: Antonka
(49.3089°N, 15.1029°E)
Time: 09:22:15
(UTC+00:00)

Daily predictions for brighter satellites

Satellite Brightness Start Highest point End
(mag) Time Altitude Azimuth Time Altitude Azimuth Time Altitude Azimuth
CZ-4C R/B 3.0 15:27:43 10° NW 15:34:40 67° NE 15:42:54 10° SE
ATLAS 2AS CENTAUR R/B 4.1 15:30:28 10° WNW 15:36:53 28° N 15:43:03 10° NE
Cosmos 1340 Rocket 3.3 15:33:04 10° NNW 15:37:08 67° W 15:41:10 10° S
ADEOS 3.8 15:32:24 10° SSE 15:37:37 80° WSW 15:42:53 10° NNW
Cosmos 841 Rocket 3.9 15:33:12 10° S 15:38:02 43° ESE 15:42:54 10° NE
Cosmos 2034 Rocket 4.0 15:32:16 10° S 15:38:25 82° E 15:44:37 10° N
Cosmos 1743 Rocket 3.6 15:37:38 10° N 15:42:00 87° W 15:46:20 10° S
Cosmos 1697 Rocket 3.2 15:36:28 10° NNW 15:42:03 68° WSW 15:47:36 10° SSE
USA 307 3.3 15:38:45 10° WNW 15:42:52 46° N 15:46:59 10° E
Cosmos 372 Rocket 4.0 15:38:46 10° NNW 15:44:00 65° ENE 15:49:13 10° SE
Cosmos 2322 Rocket 3.3 15:39:50 10° N 15:44:22 23° NE 15:48:52 10° E
CZ-4C R/B 3.2 15:40:54 10° NNE 15:44:42 86° WNW 15:48:17 10° SSW
Meteor PRIRODA 3.5 15:41:10 10° SSE 15:44:45 67° ENE 15:48:22 10° N
Cosmos 1937 Rocket 3.7 15:40:01 10° NNW 15:45:23 84° WSW 15:50:42 10° SSE
ERBS 3.9 15:43:00 10° WNW 15:45:31 21° N 15:48:02 10° NE
USA 234 3.3 15:39:57 10° ESE 15:46:24 65° NNE 15:52:51 10° WNW
Lacrosse 5 rocket 1.3 15:43:00 10° NW 15:46:49 57° NNE 15:50:50 10° ESE
Cosmos 1980 Rocket 2.2 15:42:35 10° NNW 15:48:17 77° ENE 15:53:55 10° SSE
Cosmos 2026 Rocket 3.9 15:46:08 10° N 15:52:15 66° ENE 15:58:16 10° SSE
Cosmos 1666 Rocket 4.1 15:49:02 10° N 15:53:10 36° ENE 15:57:14 10° SE
AQUARIUS 4.5 15:49:01 10° SE 15:53:16 44° ENE 15:57:33 10° N
EP 1 4.5 15:50:23 10° SW 15:53:37 74° SE 15:56:06 12° NE
Cosmos 1809 Rocket 4.4 15:47:51 10° N 15:53:59 75° ENE 16:00:03 10° SSE
Cosmos 1125 Rocket 4.3 15:50:03 10° N 15:54:34 28° NE 15:59:06 10° ESE
CORIOLIS 4.3 15:49:56 10° SE 15:55:09 52° ENE 16:00:27 10° N
Cosmos 1634 Rocket 4.2 15:49:12 10° SSE 15:55:21 55° E 16:01:30 10° NNE
Cosmos 2195 Rocket 4.5 15:50:42 10° N 15:56:53 82° E 16:03:08 10° S
H-2A R/B 2.5 15:54:55 10° SE 15:59:29 35° ENE 16:03:59 10° N
Cosmos 2369 4.0 15:54:10 10° NNW 15:59:54 74° WSW 16:05:35 10° SSE
Cosmos 1812 3.4 15:58:54 10° SSE 16:02:23 34° E 16:05:54 10° NNE
PSLV R/B 4.2 16:00:15 10° SE 16:03:39 35° ENE 16:07:07 10° N
Okean O Rocket 2.8 16:01:11 10° ESE 16:04:32 21° ENE 16:07:54 10° NNE
ATLAS CENTAUR R/B 3.8 16:02:20 10° NW 16:04:39 14° NNW 16:07:03 10° NNE
Cosmos 2221 4.2 16:01:09 10° SW 16:05:03 33° WNW 16:09:00 10° N
SL-16 R/B 2.7 16:00:05 10° NNW 16:05:20 36° NE 16:10:32 10° ESE
USA 308 3.2 16:01:30 10° WNW 16:05:40 51° NNE 16:09:19 13° E
CZ-2C R/B 3.2 16:01:33 10° S 16:06:21 71° WSW 16:11:07 10° NNW
Sich 1 3.0 16:04:35 10° N 16:08:55 89° ENE 16:13:15 10° S
Cosmos 2082 Rocket 2.2 16:03:31 10° SSW 16:09:08 67° ESE 16:14:46 10° NNE
Cosmos 540 Rocket 3.5 16:04:58 10° SSW 16:10:05 83° WNW 16:15:15 10° NNE
ARGOS 3.9 16:06:00 10° ESE 16:10:37 30° ENE 16:15:15 10° N
Meteor 1-5 Rocket 4.4 16:05:00 10° N 16:10:53 56° ENE 16:16:39 10° SSE
FengYun 1-2 T 4.3 16:08:31 10° SSE 16:14:06 85° WSW 16:19:40 10° NNW
COSMOS 2455 2.9 16:09:47 10° SSW 16:15:49 86° ESE 16:21:45 11° NE
SMAP 3.0 16:12:09 10° SSE 16:16:48 85° ENE 16:21:30 10° NNW
NOAA 6 4.0 16:13:09 10° SSE 16:18:17 86° ENE 16:23:27 10° NNW
deb Chang Zheng 4 4.2 16:16:44 10° SE 16:20:31 31° ENE 16:24:21 10° N
Cosmos 1805 Rocket 4.4 16:17:10 10° NNW 16:21:24 54° W 16:25:37 10° S
Cosmos 1933 4.0 16:18:13 10° SSW 16:22:11 56° WNW 16:26:11 10° N
Cosmos 2278 3.8 16:16:39 10° NNW 16:22:24 84° WSW 16:28:05 10° SSE
Cosmos 1833 Rocket 3.4 16:17:07 10° SW 16:22:37 53° NW 16:28:09 10° NNE
Cosmos 2333 Rocket 3.6 16:20:25 10° N 16:24:28 19° NE 16:26:02 17° ENE
CZ-4B DEB 4.1 16:21:56 10° SSE 16:27:26 80° ENE 16:32:56 10° NNW
CZ-2C R/B 3.2 16:25:19 11° NNE 16:29:48 33° E 16:34:25 10° SSE
USA 305 2.9 16:25:53 10° WNW 16:30:07 63° NNE 16:32:51 21° E
Cosmos 1655 Rocket 4.3 16:25:19 10° N 16:31:29 46° ENE 16:37:33 10° SE
Cosmos 1356 Rocket 4.1 16:28:37 10° N 16:32:24 31° ENE 16:36:12 10° SE
Cosmos 2219 Rocket 3.6 16:28:48 10° N 16:32:34 18° NE 16:33:20 17° NE
CZ-4B R/B 4.4 16:29:20 10° SSW 16:32:59 37° W 16:36:30 10° NNW
Cosmos 1500 4.1 16:30:57 10° NNW 16:34:35 50° W 16:38:11 10° S
Meteor 1-14 Rocket 4.3 16:29:02 10° NNW 16:34:56 90° ESE 16:40:53 10° S
Cosmos 44 Rocket 3.3 16:31:49 10° NW 16:36:47 83° SW 16:41:33 10° SE
Meteor 2-16 Rocket 4.4 16:32:58 10° N 16:39:08 86° E 16:45:16 10° S
Cosmos 1515 Rocket 4.2 16:37:37 10° SSE 16:41:37 34° E 16:43:15 25° NE
COSMOS 2406 4.0 16:36:43 10° SW 16:42:16 49° NW 16:47:51 10° NNE
Cosmos 1814 Rocket 3.9 16:37:43 10° SSW 16:42:56 90° WNW 16:47:38 13° NNE
Cosmos 921 Rocket 3.2 16:40:02 10° S 16:44:03 46° ESE 16:45:57 27° NE
Cosmos 1570 Rocket 3.9 16:44:33 10° SSW 16:49:48 90° E 16:54:14 15° NNE
MOS 1-B Rocket 4.1 16:45:06 10° NNE 16:51:06 68° ESE 16:58:00 10° S
CZ-4B R/B 3.0 16:48:09 10° SSE 16:53:31 73° ENE 16:58:49 10° NNW
USA 267 3.2 16:50:26 23° ENE 16:54:46 82° SSE 17:01:19 10° SW
Cosmos 2298 Rocket 3.9 16:49:52 10° NNW 16:55:14 84° ENE 17:00:34 10° SSE
Cosmos 371 Rocket 4.2 16:51:24 10° N 16:55:08 28° NE 16:55:08 28° NE
CZ-2D R/B 3.5 16:52:07 10° S 16:55:54 68° WSW 16:59:43 10° NNW
MOS 1-B 4.4 16:52:37 10° SSE 16:58:24 82° WSW 17:04:15 10° NNW
YAOGAN 3 4.5 16:55:17 10° SSE 16:59:36 63° ENE 17:03:55 10° N
ATLAS CENTAUR R/B 2.9 16:51:42 10° WSW 16:59:45 55° NNW 17:01:31 31° NNE
COSMO-SKYMED 1 2.6 16:59:10 30° NE 17:01:08 56° E 17:05:23 10° S
Cosmos 1633 Rocket 3.7 16:57:14 10° NNW 17:01:33 58° W 17:05:51 10° S
Cosmos 1151 Rocket 3.5 16:57:45 10° SSW 17:02:03 62° WNW 17:06:25 10° N
Meteor 1-27 Rocket 4.0 16:57:06 10° SSE 17:02:12 40° E 17:04:00 31° NE
USA 306 2.7 16:58:12 10° WNW 17:02:28 84° NNE 17:03:51 42° ESE
Cosmos 1666 3.9 16:59:44 10° NNW 17:03:17 42° W 17:06:47 10° SSW
Landsat 5 4.0 17:05:03 37° SE 17:05:03 37° SE 17:08:06 10° S
APEX 3.2 17:01:10 10° SSW 17:04:23 48° SE 17:04:23 48° SE
Meteor 2-6 Rocket 4.1 16:59:23 10° S 17:05:06 89° ESE 17:10:41 10° NNE
SJ-11-01 4.2 17:01:39 10° SSE 17:06:23 77° ENE 17:11:09 10° N
Cosmos 2360 Rocket 2.4 17:00:55 10° NNW 17:06:23 46° NE 17:08:17 34° E
ISS -0.4 17:06:31 10° WSW 17:07:20 11° SW 17:08:10 10° SSW
Helios 1B 4.5 17:06:10 36° NE 17:07:46 62° ESE 17:12:03 10° S
YAOGAN 1 3.9 17:11:21 25° NNE 17:11:21 25° NNE 17:13:22 10° N
Cosmos 1900 4.4 17:04:44 10° SW 17:09:36 77° NW 17:11:53 32° NNE
Cosmos 2237 4.1 17:04:00 10° NNW 17:09:42 63° ENE 17:13:44 19° SE
Cosmos 1818 4.5 17:06:55 10° NW 17:12:12 49° WSW 17:17:25 10° SSE
CZ-2C R/B 3.8 17:16:29 10° SSW 17:17:56 11° S 17:19:13 10° SSE
Cosmos 2279 Rocket 4.4 17:12:03 10° SSW 17:18:10 62° WNW 17:24:20 10° N
Cosmos 1536 4.4 17:14:53 10° N 17:16:30 23° N 17:16:30 23° N
ATLAS 5 CENTAUR R/B 1.6 17:12:47 10° NW 17:19:15 84° SW 17:19:39 67° SSE
Meteor 2-15 4.4 17:14:19 10° S 17:20:27 89° W 17:26:35 10° N
Cosmos 2266 Rocket 4.0 17:14:15 10° N 17:20:42 88° W 17:27:07 10° S
ERBS 4.3 17:19:22 10° NW 17:20:46 20° NNW 17:20:46 20° NNW
USA 307 2.8 17:18:46 10° WNW 17:23:02 83° SSW 17:23:33 68° SE
CZ-4C R/B 4.2 17:16:25 10° NW 17:23:14 42° WSW 17:31:00 10° S
SL-08 RB Rocket 3.6 17:20:27 10° SSE 17:25:04 80° ENE 17:29:41 10° NNW
Lacrosse 5 rocket 3.0 17:22:16 10° WNW 17:25:46 31° SW 17:28:57 13° SSE
NOSS 3-4 (A) 4.1 17:21:08 10° NW 17:27:31 44° NE 17:28:52 40° ENE
NOSS 3-4 (C) 4.1 17:21:14 10° NW 17:27:37 44° NNE 17:28:56 40° ENE
Cosmos 1933 Rocket 3.5 17:24:21 10° NNW 17:28:43 81° W 17:33:03 10° S
Cosmos 2322 Rocket 2.2 17:23:24 10° NNW 17:29:09 85° WSW 17:34:52 10° SSE
USA 234 3.8 17:23:05 10° SE 17:29:31 57° SW 17:35:57 10° WNW
ATLAS 2AS CENTAUR R/B 3.6 17:23:33 10° NW 17:30:09 31° NNE 17:31:18 30° NE
COSMOS 2428 4.0 17:25:17 10° NNW 17:28:43 25° NNE 17:28:43 25° NNE
NOAA 15 4.4 17:28:43 10° SSE 17:33:58 73° ENE 17:39:14 10° NNW
Cosmos 1544 4.0 17:31:21 10° NNW 17:34:49 46° W 17:38:19 10° SSW
Cosmos 1125 Rocket 4.3 17:31:50 10° NNW 17:36:56 53° WSW 17:42:02 10° S
Cosmos 1867 3.5 17:33:02 10° SSW 17:38:24 62° ESE 17:38:27 62° ESE
NOSS 3-3 (A) 4.1 17:33:14 10° SSW 17:38:22 47° SE 17:38:22 47° SE
NOSS 3-3 (C) 4.1 17:33:20 10° SSW 17:38:27 46° SE 17:38:27 46° SE
H-2A R/B 3.5 17:34:12 10° SSW 17:38:53 36° W 17:43:31 10° NNW
X-37B 3.3 17:37:10 10° SW 17:37:49 14° SW 17:37:49 14° SW
Okean O Rocket 2.4 17:36:12 10° S 17:40:33 53° W 17:44:57 10° NNW
GEOS 3 Rocket 3.7 17:41:55 59° NNE 17:41:55 59° NNE 17:46:48 10° NW
Meteor 1-11 Rocket 4.1 17:36:20 10° NNW 17:41:56 65° W 17:47:37 10° S
USA 32 3.9 17:38:52 10° S 17:44:06 87° W 17:46:22 35° N
ATLAS CENTAUR R/B 4.0 17:43:08 10° NNW 17:44:13 12° N 17:44:13 12° N
USA 308 3.3 17:41:29 10° WNW 17:45:21 60° WSW 17:45:21 60° WSW
SKYMED 2 4.4 17:47:47 35° NNW 17:49:11 50° WNW 17:53:23 10° SW
SL-16 R/B 3.1 17:44:11 10° NW 17:49:36 47° WSW 17:54:59 10° S
ARGOS 4.0 17:45:27 10° S 17:50:40 49° W 17:55:56 10° NNW
Cosmos 2237 Rocket 4.2 17:47:41 10° N 17:49:04 14° N 17:49:04 14° N
Cosmos 2082 Rocket 3.9 17:48:54 10° WSW 17:53:43 28° NW 17:56:57 17° N
Cosmos 1244 Rocket 4.5 17:52:25 10° N 17:57:59 64° NE 17:57:59 64° NE
Cosmos 1241 Rocket 4.3 17:55:37 10° SSW 18:01:59 78° SE 18:01:59 78° SE
COSMOS 2455 4.4 17:57:23 10° W 18:02:30 28° NNW 18:04:54 22° N
Cosmos 2333 Rocket 2.9 18:04:03 10° NNW 18:08:04 45° N 18:08:04 45° N
USA 305 4.4 18:05:54 10° WNW 18:08:53 34° WSW 18:08:53 34° WSW
CZ-2C R/B 3.8 18:06:50 18° N 18:10:10 39° WNW 18:14:56 10° SW
Cosmos 2219 Rocket 3.4 18:11:59 10° NNW 18:15:05 33° NNW 18:15:05 33° NNW
Aureole 3 Rocket 4.4 18:13:58 10° SSW 18:18:38 53° WNW 18:25:15 10° N
USA 267 3.7 18:37:47 53° NNW 18:37:47 53° NNW 18:43:54 10° W
Cosmos 2360 Rocket 3.6 18:45:11 10° NW 18:50:08 35° WSW 18:50:08 35° WSW
ATLAS 2AS CENTAUR R/B 4.1 19:15:01 10° NW 19:18:44 32° NNW 19:18:44 32° NNW
